Location: Coupvray
(48.8929°N, 2.7967°E)
Time: 10:39:53
(UTC+00:00)

Altair 2 - Pass Details

Date: 23 January 2021
Orbit: 837 x 949 km, 90.2° (Epoch: 26 February)

Event Time Altitude Azimuth Distance (km) Brightness Sun altitude
Rises 19:26:04 0° 219° (SW) 3,386 11.3 -28.3°
Reaches altitude 10° 19:29:04 10° 235° (SW) 2,451 10.7 -28.8°
Maximum altitude 19:33:06 21° 283° (WNW) 1,817 10.1 -29.4°
Drops below altitude 10° 19:37:10 10° 331° (NNW) 2,468 10.5 -30.1°
Sets 19:40:12 0° 348° (NNW) 3,417 11.1 -30.6°
